GFSFLT2_925_thetae_120.txt.gz
Theta_e
291 290 289 290 292 292 295 294 293 296 299 304 306 305 312 318 321 321 323 324 325 324 324 324 323 326 328
290 289 289 289 290 293 293 292 291 292 300 301 305 304 305 307 313 320 323 322 325 323 322 323 324 324 324
289 289 289 288 289 290 290 290 290 289 296 296 299 302 300 302 304 309 315 323 324 323 323 323 323 323 323
289 289 288 288 288 289 289 289 289 290 291 288 288 290 296 296 300 303 306 310 316 322 323 323 323 323 324
289 288 288 287 288 288 288 288 288 289 288 288 288 288 288 291 294 299 302 305 308 311 315 319 322 322 321
287 287 287 287 287 287 288 288 288 288 287 287 288 288 290 291 292 293 298 301 304 305 308 311 313 317 320
286 286 286 287 287 287 288 289 288 287 286 287 287 288 291 291 292 295 294 298 301 303 305 307 309 312 314
286 286 287 287 287 287 287 287 287 286 286 286 287 289 287 288 295 296 295 297 299 301 303 305 307 309 312
286 286 286 286 285 286 285 286 285 285 285 287 288 286 286 286 290 291 290 290 292 297 301 304 307 308 311
286 285 284 283 283 284 284 284 284 284 285 285 285 286 285 286 286 285 285 286 288 290 295 303 306 308 310
284 283 282 283 283 282 283 283 283 283 285 284 284 285 285 285 285 284 285 285 286 288 294 300 305 306 309
282 282 282 283 282 282 282 283 284 284 285 284 284 283 283 282 283 283 284 285 287 288 290 296 301 304 306
282 282 282 282 282 282 282 282 283 283 284 284 283 282 282 282 282 283 285 285 286 288 290 292 295 301 304
281 281 281 281 281 281 281 281 281 282 283 283 283 282 282 282 283 284 285 285 286 287 287 288 292 296 302
280 280 281 280 280 280 280 280 280 281 281 283 283 282 282 281 281 283 285 286 287 287 288 289 290 294 297
279 279 280 279 278 279 280 281 280 280 280 281 282 281 282 283 283 284 285 286 286 287 288 289 290 291 294
278 278 278 278 279 279 280 280 280 280 281 281 281 280 280 281 282 284 286 287 287 287 287 288 290 291 294

GFSFLT2_925_thetae_123.txt.gz
Theta_e
292 292 290 290 290 289 291 291 291 291 291 294 296 296 299 301 300 304 302 312 320 323 325 327 328 328 326
291 291 290 289 289 289 289 289 290 290 291 295 292 291 292 294 296 299 302 303 310 316 322 323 327 326 326
289 289 289 289 288 288 288 289 289 289 290 290 289 290 290 292 293 295 297 301 303 306 316 322 324 326 325
288 288 288 288 287 287 288 288 288 288 290 288 288 289 289 290 292 292 294 295 300 302 305 311 324 325 325
287 287 287 287 287 287 287 287 288 288 288 287 287 287 288 290 291 292 293 295 297 300 302 304 309 323 322
287 287 286 286 286 287 287 287 288 287 287 287 287 287 288 290 290 291 295 297 297 299 300 302 304 310 318
286 286 286 286 287 287 287 286 286 286 286 286 286 287 288 286 287 289 292 292 294 296 298 300 303 305 308
286 286 286 286 287 286 285 285 285 285 285 286 286 287 285 285 286 290 289 288 288 290 292 298 301 304 305
286 286 286 286 285 284 284 284 284 284 284 285 286 285 285 285 286 286 286 286 287 288 288 292 297 301 305
285 285 284 284 283 283 284 283 283 283 284 285 285 285 285 285 285 284 284 284 285 286 288 291 295 299 302
283 283 282 282 283 283 283 283 283 283 283 284 284 285 285 284 283 283 283 283 284 285 287 287 292 296 299
281 282 282 282 282 282 282 282 282 282 282 283 283 284 284 283 284 283 283 283 285 285 287 288 289 294 300
281 281 281 281 281 281 281 281 281 281 282 282 283 283 283 283 283 283 283 283 284 286 286 287 287 288 293
281 281 281 280 281 281 281 280 280 281 281 281 282 282 282 283 282 283 283 283 283 284 286 286 288 288 291
281 280 280 280 280 280 279 279 280 281 281 281 281 281 281 282 282 282 283 283 284 286 286 287 288 288 289
280 280 279 279 279 279 279 280 280 280 280 280 280 280 282 282 281 282 283 284 285 286 287 287 288 288 290
279 279 279 278 278 278 279 279 279 279 280 280 279 280 282 283 282 281 282 283 283 284 286 287 288 288 289

GFSFLT2_925_thetae_126.txt.gz
Theta_e
292 292 292 292 291 291 290 291 291 291 291 292 293 292 292 292 293 294 296 299 301 303 304 306 318 324 325
291 291 291 291 291 290 290 290 290 290 290 291 292 291 291 291 292 294 294 295 297 299 302 304 305 311 322
290 290 290 290 290 289 289 289 290 289 290 291 290 290 290 290 291 293 293 294 295 297 299 301 302 304 312
290 290 289 289 288 289 289 289 288 289 290 290 289 289 289 290 291 292 291 296 296 297 298 300 302 303 305
289 289 289 289 288 288 288 288 287 288 288 288 288 288 289 289 291 289 289 293 294 294 295 296 297 300 302
289 289 288 288 288 288 287 288 288 288 287 287 288 288 288 289 289 288 289 292 291 291 291 293 294 296 299
287 287 287 287 287 287 287 287 287 287 286 287 287 287 288 288 287 288 289 289 288 288 289 290 291 294 297
287 287 286 287 287 287 287 286 286 286 285 287 286 287 287 287 287 287 288 287 287 287 288 289 290 292 295
286 286 286 286 286 286 286 286 286 285 285 285 286 286 286 286 287 287 286 286 286 286 287 287 289 290 294
286 285 285 285 285 284 284 285 285 285 284 284 284 284 286 285 286 285 285 285 285 285 286 287 289 291 292
285 284 284 283 284 284 284 284 284 284 283 283 284 284 284 285 285 285 285 285 285 285 286 286 289 289 290
283 283 283 283 283 283 283 282 282 282 282 282 282 283 283 284 286 284 285 285 285 285 285 287 286 288 289
283 283 283 283 282 281 281 281 281 281 281 281 282 283 283 284 284 284 285 284 284 285 285 286 287 288 288
283 283 282 282 282 281 282 281 281 281 281 281 282 282 282 283 283 284 284 284 284 285 285 286 287 288 289
282 282 282 282 281 281 281 280 280 281 281 281 282 282 282 281 282 283 284 284 284 285 286 286 287 288 288
282 281 281 281 281 280 280 280 281 281 281 281 280 281 282 282 283 283 283 283 284 284 284 285 287 288 288
281 281 281 280 281 280 280 280 280 280 280 280 280 281 282 283 283 283 283 283 283 283 284 285 286 287 288

GFSFLT2_925_thetae_129.txt.gz
Theta_e
292 292 292 292 292 292 291 290 291 291 291 292 292 293 293 292 292 293 294 295 295 296 297 301 304 306 307
291 292 291 291 291 291 290 290 290 290 291 291 291 292 292 292 292 292 293 293 293 298 297 298 300 303 305
291 291 291 291 290 290 289 290 289 290 288 289 291 291 290 291 291 292 292 290 291 294 295 296 298 299 301
290 290 290 290 290 290 289 289 289 288 288 290 290 289 289 290 290 291 291 290 290 292 293 294 294 295 296
290 290 290 290 290 289 289 289 287 288 288 289 288 287 288 288 289 290 290 289 290 292 290 291 291 292 293
289 289 289 289 288 288 288 287 288 287 288 287 287 287 287 288 288 289 289 289 290 289 289 289 290 290 291
288 288 287 287 287 287 287 288 288 287 286 286 286 286 286 287 288 288 288 288 289 288 288 288 289 289 290
287 287 287 287 287 287 287 287 287 286 286 286 286 285 286 286 285 286 288 288 288 287 287 288 288 288 289
288 287 287 287 287 287 286 286 286 285 285 285 285 286 285 284 285 286 287 286 286 286 287 287 287 288 288
287 286 286 286 285 285 285 285 285 285 285 284 284 284 284 284 285 284 285 285 286 286 286 286 287 287 288
285 285 285 284 284 284 284 284 284 283 283 283 283 282 283 283 283 283 284 285 285 285 285 285 286 287 287
285 284 284 284 284 284 283 283 282 281 281 281 281 281 281 282 283 283 283 284 284 285 284 285 285 286 287
284 284 284 284 283 283 282 282 282 282 282 282 282 281 281 283 282 282 283 283 284 284 284 285 285 285 286
283 283 283 282 282 282 282 282 282 282 282 281 280 281 281 282 283 282 282 282 283 284 284 284 285 286 286
283 283 283 282 282 282 282 281 281 281 281 281 281 281 281 281 282 282 282 282 283 284 284 284 283 284 284
282 282 281 281 281 281 281 281 281 281 281 281 281 281 280 280 281 282 283 283 284 284 283 283 283 284 285
281 281 281 281 281 281 281 281 281 281 280 280 280 281 280 280 280 281 282 283 283 283 282 283 283 283 284

GFSFLT2_925_thetae_135.txt.gz
Theta_e
290 290 290 290 290 289 290 290 289 289 290 292 291 291 292 293 293 292 293 293 293 294 293 294 295 295 296
290 290 289 289 289 290 289 290 289 288 290 290 289 290 292 292 291 290 291 291 291 293 292 292 293 294 294
289 289 288 288 289 288 289 288 288 288 288 288 288 290 290 289 288 289 289 289 290 292 292 291 292 292 292
288 287 287 287 288 288 287 287 287 287 286 287 288 287 287 287 288 287 287 289 289 290 291 290 291 291 291
287 286 286 287 287 287 287 287 286 286 286 287 286 286 285 285 286 286 287 288 289 290 288 289 290 291 290
287 287 287 287 288 287 287 286 286 286 286 286 286 285 285 285 285 286 286 288 288 287 288 290 290 289 289
288 288 287 286 287 287 287 287 286 286 286 286 285 284 284 284 284 285 286 286 286 288 289 289 288 288 288
287 287 287 287 287 287 288 287 287 286 285 284 284 283 284 283 283 284 285 285 286 287 286 286 286 286 288
287 287 288 288 288 288 286 285 285 284 284 283 284 283 282 282 283 283 284 284 283 284 284 285 285 286 286
287 287 287 287 287 285 285 284 283 283 284 283 283 282 282 282 281 281 281 281 282 282 283 284 284 284 284
287 288 287 286 285 284 284 283 283 283 283 283 282 281 281 281 281 281 281 281 281 280 281 282 283 283 284
287 286 286 285 283 283 284 283 283 283 282 282 282 281 280 281 281 281 281 280 280 280 281 281 282 282 283
286 285 284 283 283 283 283 282 282 282 281 281 281 281 281 281 281 280 280 280 280 281 281 281 280 280 281
284 284 284 283 283 283 282 282 282 281 281 281 281 280 280 280 280 280 280 280 280 280 280 280 280 280 281
284 283 283 283 282 282 282 281 281 280 280 280 281 280 280 280 279 280 280 280 280 280 279 280 280 281 282
283 283 282 282 281 281 281 281 281 281 280 280 280 280 279 279 279 280 280 280 280 279 280 280 280 281 281
282 282 281 281 281 281 281 280 280 280 280 280 280 278 279 279 280 280 280 280 279 279 280 280 280 280 280

GFSFLT2_925_thetae_138.txt.gz
Theta_e
290 289 289 290 289 288 290 289 289 289 290 291 291 290 291 293 293 292 291 293 293 293 294 294 294 295 296
289 289 289 289 288 288 289 288 288 288 289 289 289 289 291 291 291 290 290 291 290 291 292 293 293 293 294
288 288 288 287 287 287 287 287 287 287 287 287 288 289 289 288 289 289 289 288 289 290 291 292 292 292 292
287 287 286 287 287 287 287 287 287 286 286 286 287 287 287 287 287 287 287 288 289 289 291 291 290 290 291
286 286 286 286 287 287 287 287 287 286 286 286 286 286 285 284 284 285 287 288 288 289 290 289 289 290 291
287 286 287 287 287 287 286 286 285 286 286 286 286 285 284 284 284 286 286 287 287 288 288 288 290 290 290
288 288 287 287 286 286 286 286 286 287 287 286 285 284 284 284 283 285 285 286 286 287 287 288 288 287 287
287 287 287 287 287 287 287 287 287 286 286 285 284 283 283 283 283 283 285 285 285 285 285 285 285 286 286
287 288 288 288 288 289 287 286 285 285 284 283 283 283 282 282 282 282 284 284 283 284 284 284 284 285 286
288 288 287 287 287 288 287 284 284 282 283 283 283 283 282 281 281 282 281 281 282 282 283 283 283 284 284
288 287 287 287 287 286 285 284 283 282 283 283 283 283 282 281 281 281 281 281 281 281 281 281 282 283 283
288 288 287 286 286 284 283 283 283 283 283 282 282 281 281 281 281 280 280 280 280 280 280 280 281 282 282
286 286 286 286 284 283 283 283 282 282 282 282 281 281 281 280 280 280 281 280 280 280 280 280 280 280 280
286 286 285 284 283 283 283 282 282 281 281 281 281 281 280 280 280 280 280 279 280 280 280 280 280 280 279
285 285 284 283 283 283 282 282 281 280 280 280 280 280 280 280 279 280 280 280 280 280 279 279 279 279 279
285 283 283 283 282 282 281 281 280 280 280 280 280 279 279 279 279 279 279 280 280 280 280 279 279 279 279
283 283 282 282 281 281 280 280 280 279 279 279 279 279 279 279 280 281 280 280 280 280 280 279 279 280 280